Location: Doverdale
(52.2833°N, 2.2000°W)
Time: 01:42:05
(UTC+00:00)

Cosmos 1980 Rocket - Pass Details

Date: 06 March 2021
Orbit: 828 x 851 km, 71.0° (Epoch: 15 April)

Event Time Altitude Azimuth Distance (km) Brightness Sun altitude
Rises 23:25:24 0° 326° (NW) 3,428 6.2 -41.7°
Reaches altitude 10° 23:28:40 10° 345° (NNW) 2,491 5.3 -41.8°
Enters shadow 23:31:14 17° 10° (N) 2,022 4.6 -41.9°
